Wind_Speed
32 31 31 32 30 29 30 29 28 27 27 26 26 25 23 21 20 18 17 16 15 15 16 16 17 17 16 16 14 12 12 11 11 6 11 23 27 22 15 10 15 22 21 25 29 25 19 13 15 17 11 7 3 3 6 5 3 2 2 2 3 3 3 4 4 3 3 3 6 7 8 7 5 4 3 5 6 7 5 3 5 6 7 11 17 27 29 28
31 33 34 32 31 32 31 30 29 28 28 28 27 25 23 21 20 19 18 17 16 16 16 17 17 17 15 14 12 10 10 10 10 12 23 29 23 17 18 18 16 26 30 30 33 28 18 11 13 13 7 4 2 3 6 5 4 3 2 2 4 4 4 3 3 3 1 3 7 7 7 6 6 7 5 4 6 8 6 4 6 9 11 14 21 28 28 28
32 34 34 33 33 33 32 31 30 29 29 28 27 25 23 21 20 20 19 18 17 15 16 17 16 15 14 12 9 8 8 8 7 13 17 16 20 22 16 18 20 28 34 35 37 34 27 21 19 13 5 3 2 3 6 5 5 4 3 4 6 5 5 5 5 5 3 4 8 7 7 5 6 7 5 6 8 8 6 7 8 10 12 14 18 23 26 26
34 35 35 35 35 33 32 31 30 30 29 28 27 25 23 22 22 21 21 20 17 15 15 16 16 14 11 9 7 6 5 4 4 7 4 10 6 19 20 18 23 31 32 30 31 30 31 28 20 12 6 3 2 3 6 6 4 4 5 6 4 3 5 7 6 6 4 4 6 6 7 5 6 7 6 9 8 6 8 11 12 15 17 18 17 20 24 24
35 36 36 37 36 34 34 32 31 31 29 28 26 24 23 23 23 23 22 19 16 14 14 14 14 12 8 6 5 4 3 1 3 2 3 10 9 8 23 20 26 34 28 23 21 22 26 23 15 9 4 3 4 3 5 8 4 3 7 7 5 2 4 5 2 5 5 3 5 6 7 5 6 6 8 13 10 6 8 12 12 17 20 21 21 20 21 20
37 38 38 38 37 36 34 33 32 31 30 28 25 24 24 24 24 23 21 18 15 13 13 13 12 9 5 3 3 2 0 1 4 5 7 11 15 2 22 25 29 34 26 22 21 20 19 15 11 8 4 3 8 7 3 8 7 4 6 7 8 6 7 5 2 4 5 1 4 6 6 6 7 6 8 13 11 3 5 11 13 15 19 23 23 21 20 20
39 38 38 38 38 37 35 34 33 31 30 27 24 24 24 25 24 21 19 17 15 13 12 11 9 5 3 1 1 2 2 7 11 11 13 12 10 3 21 29 32 32 25 23 20 16 14 13 11 8 6 4 6 8 3 7 9 7 7 7 8 7 10 9 4 7 5 4 5 5 5 7 10 8 7 13 10 5 9 12 14 14 17 21 21 20 20 20
40 40 39 39 38 37 35 34 33 31 29 26 24 23 23 24 22 20 18 17 16 15 12 9 6 2 0 2 1 2 1 9 12 13 11 7 3 5 23 30 34 33 26 26 22 17 16 15 12 7 7 5 4 8 4 5 8 11 11 7 4 5 8 8 6 7 6 6 6 4 6 9 12 7 8 15 9 8 12 14 15 15 16 17 19 20 19 18
42 42 40 39 38 38 36 34 32 31 28 25 23 21 21 23 21 19 18 19 19 15 12 7 3 1 3 2 3 3 5 5 7 15 12 5 2 14 28 32 36 33 25 25 23 20 15 12 13 8 7 6 5 7 7 4 5 11 12 6 6 8 8 7 8 8 6 5 5 6 7 9 9 5 6 11 8 10 13 15 16 17 17 16 16 18 18 17
44 43 42 40 38 38 37 34 32 30 27 24 22 20 19 20 20 20 19 20 18 12 8 3 2 2 4 2 4 2 5 6 10 17 18 9 5 21 30 34 38 32 23 20 20 19 13 12 13 7 5 5 4 5 8 7 3 6 7 7 11 12 10 9 11 10 6 5 6 8 11 10 7 5 6 5 11 14 15 16 16 17 17 17 16 16 17 17
44 44 43 41 39 38 37 35 32 29 27 24 21 19 17 19 20 20 21 19 12 7 4 1 2 4 4 3 3 4 6 6 4 14 16 10 4 20 26 33 40 33 24 16 16 20 14 14 14 5 2 4 5 3 6 7 5 4 4 8 11 10 10 10 11 11 5 5 8 10 12 8 5 6 7 6 13 16 16 16 16 17 16 16 17 15 13 14
45 45 43 42 39 37 37 35 32 28 25 23 20 18 18 20 19 20 21 12 5 6 4 2 2 6 3 2 5 10 8 7 8 11 14 11 3 13 21 33 39 34 29 18 16 22 16 18 17 6 4 4 5 3 4 7 6 5 5 8 10 7 10 12 10 9 4 5 7 8 7 5 7 9 7 10 12 14 16 17 16 16 15 15 16 14 12 13
46 46 44 43 40 37 36 34 32 27 24 23 20 19 20 19 19 20 14 5 7 7 4 2 2 6 4 1 9 13 11 11 15 19 20 14 7 11 18 28 31 28 27 17 15 21 17 22 21 8 4 5 4 2 2 4 4 5 5 5 7 5 9 10 6 7 7 5 7 8 3 5 9 9 7 11 13 14 14 15 15 14 13 13 14 12 12 14
47 47 45 43 39 37 36 34 31 26 23 23 21 21 21 19 19 16 7 6 8 7 4 3 2 7 4 6 10 11 12 11 12 14 13 6 8 10 14 22 23 18 14 6 6 14 12 15 16 5 1 3 2 2 4 2 1 2 3 3 2 1 6 5 3 6 6 4 9 10 4 6 8 7 10 12 15 17 15 15 14 13 13 13 13 13 13 13
47 47 47 44 39 37 35 33 29 24 24 23 22 23 21 18 16 11 5 6 9 7 5 2 6 5 2 8 9 11 9 4 8 12 12 4 6 9 13 20 21 15 9 4 2 10 10 6 7 3 3 1 0 2 3 3 2 0 2 3 2 4 7 6 3 7 7 3 8 10 4 5 6 7 12 13 15 17 15 15 15 15 15 14 13 13 12 13
48 48 47 43 39 37 34 32 27 23 25 23 23 22 17 15 13 6 5 10 12 7 4 3 6 3 0 6 9 11 5 3 12 14 12 8 5 8 13 19 18 13 6 2 3 10 11 3 2 4 2 1 2 2 2 3 4 2 3 4 2 5 6 6 3 6 8 4 5 9 5 3 4 8 13 13 16 16 14 15 16 16 16 15 14 13 13 12
48 48 48 44 40 36 33 31 25 23 25 24 23 18 12 12 9 3 4 12 12 3 1 3 5 3 3 6 9 8 6 11 18 18 20 17 10 11 13 13 9 10 5 0 3 8 9 3 1 2 1 2 3 5 2 4 5 3 3 4 3 5 5 3 4 4 5 4 4 8 7 5 4 9 14 14 16 15 14 15 17 16 15 14 14 13 13 14
48 49 48 45 41 36 32 29 22 22 25 23 20 12 9 9 4 2 3 13 10 3 1 2 4 3 4 8 10 10 13 19 23 22 22 15 8 15 16 10 7 11 6 1 3 5 5 3 2 1 2 4 4 6 7 6 5 4 4 3 3 4 5 4 4 3 1 1 4 6 8 9 4 8 13 15 16 15 15 15 15 16 15 15 14 14 14 15
48 50 49 46 42 36 31 26 20 22 24 23 16 6 10 10 0 1 4 12 7 2 1 3 2 2 6 11 12 16 20 20 19 16 10 6 4 16 15 9 10 12 7 3 4 5 5 2 3 4 6 9 11 11 10 3 4 7 5 4 4 4 6 6 5 4 1 1 5 6 9 10 6 8 12 13 15 15 12 12 12 13 14 14 13 13 14 16
48 50 50 48 43 35 30 23 18 22 22 23 18 5 8 11 2 2 6 7 2 4 4 5 1 1 7 10 12 18 22 13 6 5 3 3 4 12 9 6 8 7 6 7 5 4 6 4 6 11 12 13 12 10 8 3 1 3 3 3 5 5 6 6 3 3 2 2 5 6 9 11 8 9 12 13 13 12 11 11 12 13 13 13 15 15 16 16
48 50 50 48 43 33 28 20 15 21 19 20 22 9 3 6 3 5 6 6 5 6 7 8 5 6 10 12 15 16 12 5 2 4 4 1 5 9 5 5 7 5 6 8 5 4 5 6 12 16 11 7 7 8 7 6 7 4 2 2 4 5 6 6 3 2 1 2 4 5 7 11 9 9 11 12 13 14 15 15 15 15 15 13 15 17 17 14
48 50 50 48 42 32 26 18 13 19 17 16 19 10 2 4 5 7 5 5 8 6 7 8 5 6 11 14 14 8 2 3 6 6 3 3 6 7 5 5 8 7 7 7 5 4 6 10 17 14 7 5 5 7 8 9 9 7 4 3 4 3 3 7 5 1 1 2 4 4 5 10 9 8 11 13 15 16 17 18 18 18 17 15 17 17 15 13
48 50 50 48 41 31 24 15 11 17 17 13 12 8 3 7 12 9 2 3 7 5 3 3 2 4 7 8 5 2 2 2 3 6 5 3 5 6 5 7 8 7 8 10 8 8 7 11 14 8 7 7 7 7 9 9 8 8 6 5 6 3 2 4 4 2 0 3 3 4 4 8 6 3 9 14 16 14 15 17 16 17 19 18 17 16 14 16
48 50 50 47 40 30 21 10 8 18 18 8 6 8 7 12 16 9 1 1 5 6 3 2 2 3 6 6 3 2 1 2 2 5 6 2 3 3 6 7 8 7 8 11 11 10 8 7 5 10 8 10 10 8 9 8 6 8 8 8 7 6 6 4 4 5 4 3 1 3 2 6 4 3 7 10 10 10 10 11 11 12 14 12 12 13 14 16
48 49 50 47 38 27 17 6 7 19 17 5 6 12 14 18 18 7 1 2 3 5 2 2 1 2 8 7 3 1 1 2 5 5 4 1 2 2 4 5 7 7 9 11 10 9 9 6 8 13 12 11 11 10 10 8 5 6 9 11 10 8 7 3 3 5 5 5 3 3 0 6 4 5 8 6 8 11 8 10 14 14 12 10 11 14 14 15
48 48 49 45 34 25 14 3 9 20 12 3 11 21 22 23 17 3 3 4 3 4 2 2 1 5 11 8 3 1 1 3 6 7 5 5 5 3 3 3 4 7 8 8 6 5 6 5 8 13 14 12 11 10 9 10 6 6 8 10 10 7 6 3 2 1 2 4 4 1 3 5 5 5 7 6 10 15 12 12 17 14 12 13 13 13 14 14
47 47 47 41 31 21 10 3 14 16 5 8 22 27 27 24 10 2 2 3 3 2 2 4 4 5 10 11 10 4 2 7 9 6 7 7 5 4 4 2 3 5 6 5 3 3 7 8 8 10 12 11 10 9 9 11 8 7 6 8 8 7 7 6 3 3 4 3 6 2 3 3 5 6 6 7 10 13 12 15 16 14 14 16 15 14 15 16
46 47 44 35 24 17 10 10 14 10 9 21 26 28 28 15 2 6 3 1 2 2 1 3 6 6 7 11 12 5 2 7 6 7 14 12 4 2 4 3 4 4 6 8 6 3 8 12 11 10 9 9 10 11 11 12 9 6 6 9 8 8 8 6 5 4 2 2 7 5 5 3 6 6 3 6 10 12 13 16 15 14 16 17 16 16 17 16
45 45 39 27 18 15 15 13 10 11 22 27 26 30 23 3 6 5 4 1 1 3 1 3 7 7 7 6 8 7 3 4 3 7 12 11 9 3 3 3 2 4 4 8 7 4 5 10 12 11 9 8 9 10 10 12 10 4 6 5 5 6 6 5 5 4 2 4 10 7 7 5 5 6 4 3 8 12 12 13 14 15 17 17 17 17 17 15
44 43 34 21 14 16 18 15 15 21 26 25 26 27 12 3 4 4 1 1 2 2 1 3 5 6 8 6 6 9 7 5 5 6 6 8 12 10 2 2 3 2 4 3 6 6 4 5 10 10 8 6 6 7 8 12 11 4 5 3 1 1 3 3 3 3 2 8 12 9 9 7 5 6 6 5 6 8 9 10 13 14 15 16 16 15 15 14
43 40 27 14 13 17 16 14 22 28 24 24 26 18 4 2 4 4 2 0 2 2 3 5 5 6 9 7 6 9 7 6 8 8 8 7 11 14 9 6 6 3 2 3 4 5 5 5 5 5 7 7 5 5 6 10 11 6 5 4 1 3 0 1 1 3 7 10 8 8 9 10 8 6 6 8 7 8 10 12 14 16 17 17 16 15 15 16
42 39 21 10 12 16 14 16 26 29 24 23 18 7 4 1 2 1 3 2 2 2 2 3 5 5 7 6 6 9 6 6 8 7 7 6 8 11 9 6 5 2 2 3 3 3 6 6 3 3 7 10 7 5 5 5 8 6 4 6 4 2 1 4 2 3 8 7 4 5 7 7 9 7 9 11 10 10 11 12 14 17 19 18 17 17 16 15
42 37 17 8 12 16 21 27 29 27 24 20 8 3 5 3 1 0 2 2 1 2 2 2 4 5 6 6 6 8 5 4 9 7 4 4 5 6 8 9 8 2 2 1 2 2 3 4 6 4 5 8 10 8 5 4 6 7 6 6 6 5 4 6 4 3 6 5 4 3 5 4 4 5 13 16 14 12 11 12 15 16 18 18 18 17 15 15
41 34 14 7 12 18 28 33 29 26 22 14 5 4 5 3 1 1 2 2 1 2 2 2 4 5 6 5 4 6 4 3 8 8 5 3 3 3 5 10 13 7 1 1 2 1 2 3 6 4 1 3 9 10 7 6 6 8 7 6 6 5 5 4 3 4 5 5 4 3 4 5 3 4 12 16 16 13 11 12 14 14 15 15 13 13 13 14
40 30 10 7 16 22 31 31 27 24 16 7 5 5 4 2 2 0 0 3 1 2 4 2 3 4 5 4 4 6 3 2 6 6 5 5 4 4 4 7 11 8 2 1 2 2 1 4 4 3 6 5 5 8 8 8 5 6 7 7 7 6 5 2 4 5 3 3 4 3 4 4 3 5 7 9 13 13 12 13 13 14 12 11 10 12 14 14
39 27 8 10 22 28 32 28 24 20 9 4 6 4 2 1 1 0 1 1 1 1 3 4 4 3 3 3 4 7 5 3 6 4 4 5 4 4 4 4 8 8 5 2 1 2 2 5 7 11 11 3 3 5 5 10 6 3 6 8 7 5 5 3 5 2 2 4 5 3 4 4 2 5 4 3 9 12 12 13 14 15 12 11 11 13 15 15
36 26 8 11 27 32 30 23 19 13 4 5 5 2 2 1 1 1 1 2 1 1 3 2 2 2 2 3 3 6 6 3 5 4 2 3 3 4 3 3 7 8 5 2 1 1 2 6 8 8 7 4 8 11 7 9 7 5 6 7 4 4 3 5 5 2 3 6 5 2 6 4 3 6 3 3 7 11 13 13 14 15 11 11 13 14 15 17
28 19 6 10 27 33 27 18 10 4 4 4 4 2 1 1 2 1 1 3 1 3 4 2 1 1 1 1 2 5 4 2 4 3 3 3 2 3 3 2 5 8 8 4 0 1 1 4 6 2 3 8 10 6 5 6 7 6 5 7 7 3 5 6 4 5 5 5 4 3 4 4 5 6 3 6 10 12 13 13 13 14 11 11 13 14 15 16
18 9 2 13 30 34 24 11 2 4 5 4 2 1 1 1 2 2 2 3 1 3 3 1 1 1 1 1 1 3 3 2 2 2 2 3 1 3 5 3 4 8 10 5 1 2 2 1 4 3 5 9 7 1 3 5 6 4 3 6 6 4 5 6 4 3 4 4 4 3 3 4 6 6 7 10 12 13 13 12 12 14 14 13 13 13 14 14
10 2 1 18 34 31 17 7 5 5 4 2 2 1 1 1 2 5 5 3 1 2 2 1 1 1 1 1 1 2 2 1 2 2 2 3 1 2 6 4 4 7 9 6 1 2 2 2 3 6 8 6 3 1 1 0 1 2 2 4 5 3 2 4 3 3 4 4 3 4 4 5 5 5 10 13 13 13 14 13 13 14 15 14 13 13 13 13
5 1 3 23 36 26 11 8 6 4 3 2 2 1 3 2 2 5 7 6 3 1 1 2 1 2 2 2 2 2 2 1 2 1 1 2 1 1 4 5 5 6 6 5 3 2 2 1 1 5 6 4 6 6 3 3 2 2 3 2 5 4 3 4 5 3 4 5 4 3 5 6 5 4 8 11 12 12 14 14 14 14 16 16 14 14 14 14
3 1 6 26 35 21 8 6 3 3 3 2 3 1 4 4 3 4 7 6 4 2 2 2 2 2 2 1 1 1 1 1 1 1 0 0 1 0 3 5 5 6 3 2 3 4 3 0 1 4 4 6 15 16 10 8 6 4 3 2 2 2 3 4 6 4 4 4 3 3 6 7 5 6 8 9 9 10 12 13 13 13 15 15 14 13 14 14
2 3 8 25 29 13 6 5 3 4 3 2 3 2 3 3 3 4 5 5 4 3 3 3 2 2 2 1 1 1 2 1 1 1 1 2 1 1 2 5 6 5 3 2 3 5 5 1 1 4 4 7 13 11 4 3 1 1 2 4 4 4 2 3 5 4 4 4 4 4 8 7 4 4 6 6 5 5 7 9 11 11 10 12 14 13 13 14
2 4 5 21 27 12 6 4 2 2 4 4 4 4 4 3 3 4 4 4 4 2 2 3 3 2 2 2 1 1 1 1 2 2 1 1 2 1 0 4 6 5 3 3 4 4 3 0 2 3 3 4 6 2 1 5 5 3 4 4 4 6 9 8 4 1 3 7 8 7 8 6 3 4 4 3 4 5 6 6 7 8 8 9 11 11 12 13
3 1 4 12 22 14 5 2 1 1 4 5 3 4 5 3 3 5 3 2 4 3 0 2 3 2 2 2 2 2 2 2 1 1 0 0 2 2 1 2 4 4 4 7 8 4 1 1 2 3 2 3 4 2 0 4 6 5 6 8 9 8 9 7 3 1 5 6 7 8 8 4 3 4 4 3 2 6 7 4 4 6 7 8 9 9 10 11
2 2 2 6 9 8 3 2 3 2 2 4 3 3 5 4 3 4 3 2 4 4 1 1 2 2 3 4 3 2 2 1 1 1 0 1 2 2 2 2 2 4 4 8 10 4 1 1 1 4 4 4 4 3 3 5 6 8 13 15 13 9 5 3 1 3 3 2 5 8 6 5 7 7 6 6 6 7 8 6 5 7 8 9 9 10 11 12
1 2 2 3 3 3 3 3 4 3 1 2 2 1 4 4 4 4 3 2 3 5 2 1 3 4 3 4 3 2 2 2 2 1 1 2 2 2 1 1 2 3 4 7 8 3 1 2 3 5 6 7 7 7 8 8 8 11 15 17 16 12 7 5 6 6 3 2 7 6 4 9 12 9 8 9 9 9 10 9 9 9 10 10 10 11 12 13
2 1 1 1 1 2 2 3 5 5 4 3 1 1 3 4 4 4 3 2 4 4 3 2 4 5 3 3 2 2 3 3 2 1 1 2 2 3 2 1 2 1 4 4 6 3 1 3 3 5 6 7 7 7 8 9 10 11 13 15 17 15 11 9 10 10 7 6 7 3 5 12 14 9 9 10 9 10 11 10 8 7 8 10 11 11 13 15
2 1 0 1 0 0 2 4 5 5 6 4 1 2 3 4 5 4 3 2 4 4 3 2 5 7 5 3 0 1 1 2 2 2 1 2 2 2 2 3 2 1 2 2 3 2 1 3 4 5 6 6 6 7 9 9 9 10 12 15 15 15 15 14 13 14 13 11 10 10 11 15 12 6 5 7 7 8 9 7 7 7 9 10 11 13 15 16
1 1 1 1 1 2 2 2 3 3 4 4 2 3 3 3 4 4 3 2 2 3 3 3 6 8 7 4 1 3 4 3 4 4 3 3 3 1 2 2 1 0 1 1 2 2 1 3 4 2 3 5 5 6 7 7 8 12 14 14 12 11 13 11 10 11 10 9 11 14 15 13 6 5 7 8 6 4 5 7 8 9 9 8 10 13 14 15
1 0 1 1 2 3 1 1 2 2 2 2 2 3 3 2 3 5 4 2 3 2 2 4 7 7 6 5 3 5 6 5 6 8 6 6 5 4 3 2 2 2 2 2 1 1 1 3 5 3 2 4 2 2 5 8 10 11 11 10 7 6 8 7 5 4 4 5 8 10 10 8 5 9 12 10 7 6 5 7 8 8 8 8 10 11 13 15
2 1 1 1 1 2 2 2 2 1 1 1 3 3 3 3 4 4 4 2 2 4 3 3 6 5 4 6 5 6 7 7 8 9 7 8 8 7 6 6 6 5 3 3 2 1 2 2 4 2 2 4 1 2 7 9 7 6 6 2 3 4 7 8 5 6 6 3 4 6 6 5 8 10 10 9 8 6 5 6 6 7 8 8 9 10 13 15
Wind_Direction
8 5 4 4 1 358 359 358 356 355 354 353 353 354 353 352 352 350 349 345 340 334 331 327 324 324 322 321 317 313 315 305 297 279 241 253 256 243 237 230 186 169 156 153 151 145 147 147 151 156 152 162 201 188 197 225 198 173 195 222 246 225 231 207 201 204 190 155 150 165 169 153 143 153 141 103 101 123 125 84 89 61 71 108 124 135 143 147
3 4 5 2 359 359 359 358 356 355 353 353 352 353 354 354 353 350 348 345 340 333 328 325 320 320 320 320 317 314 315 301 290 262 253 259 264 255 233 227 197 165 158 158 157 149 149 155 154 157 150 157 190 173 187 194 181 205 203 213 234 217 223 224 231 257 259 158 148 162 176 166 154 157 158 134 138 142 120 98 96 87 95 111 127 138 146 149
4 5 4 1 360 0 359 359 357 356 354 354 353 353 354 353 353 350 347 344 339 333 325 320 317 315 318 320 318 319 313 309 292 257 271 281 255 247 229 210 195 172 168 169 167 162 158 155 154 152 142 160 175 181 190 182 178 209 224 230 239 235 255 276 256 265 298 143 143 162 175 171 156 157 168 144 150 167 155 145 131 124 130 132 138 145 149 152
5 4 2 1 1 360 358 358 357 356 355 353 352 352 353 352 351 349 346 343 339 333 322 317 316 312 317 322 319 328 318 305 287 251 320 4 262 224 213 196 181 177 175 173 170 164 153 147 150 149 142 162 181 198 200 196 177 186 211 222 238 228 245 273 259 260 285 143 146 157 159 176 167 159 168 141 143 198 195 179 163 152 148 145 150 152 155 157
3 3 3 3 1 359 358 358 356 356 355 353 352 352 352 350 349 348 345 343 337 331 323 318 316 314 316 326 337 339 338 330 301 298 10 356 360 192 194 184 174 176 171 168 162 149 142 140 144 148 148 154 168 199 217 209 199 215 227 234 251 261 253 274 280 260 270 150 139 147 157 169 159 167 171 156 167 211 202 188 167 154 153 153 156 157 158 161
4 5 5 3 1 359 358 358 356 355 354 353 352 353 351 349 349 348 344 342 337 330 327 322 319 319 311 325 6 7 49 285 299 341 339 324 342 284 183 174 173 171 165 163 152 140 141 140 148 153 162 159 178 193 200 202 213 249 247 245 243 250 259 266 328 286 289 162 165 171 174 145 151 191 180 177 193 180 156 165 154 154 155 153 154 158 163 166
6 5 5 3 1 359 358 357 356 355 354 353 353 353 350 349 350 347 345 344 340 332 326 322 321 317 309 347 76 59 104 261 291 326 319 305 328 290 176 171 171 167 162 159 149 147 147 149 161 152 158 165 189 203 183 188 211 245 256 254 245 244 253 262 294 292 289 242 218 174 157 159 182 195 172 196 208 120 120 140 141 148 151 153 156 163 169 168
7 6 4 2 1 359 358 357 356 354 352 353 353 353 350 349 348 346 349 348 342 333 322 316 317 303 136 82 116 3 268 257 303 344 330 301 317 178 168 168 171 167 163 164 160 159 152 156 168 147 166 189 186 195 194 181 202 233 243 254 267 257 261 275 281 270 260 248 238 182 172 191 197 176 173 205 202 121 126 131 137 144 151 160 163 166 170 170
8 6 3 1 360 358 358 357 355 353 353 354 353 353 351 348 347 346 349 346 339 328 320 313 294 154 153 109 81 329 265 234 7 22 19 11 181 170 166 167 172 168 165 171 168 161 157 162 172 154 164 190 179 181 194 195 199 223 235 264 287 278 281 289 279 264 250 243 227 207 218 217 195 152 196 205 161 128 131 134 142 149 157 167 169 169 172 172
7 5 2 0 359 357 357 357 355 353 353 354 353 353 351 347 343 341 343 339 333 324 329 324 237 147 155 136 89 294 241 142 68 38 33 31 152 166 168 170 173 170 166 174 174 170 168 169 172 147 134 178 191 181 187 200 228 227 242 273 269 275 279 275 275 266 252 245 218 209 231 229 188 174 228 189 141 138 133 142 150 153 163 169 171 174 175 176
6 4 2 359 358 357 356 357 355 353 353 354 352 351 350 344 337 337 339 335 333 345 4 350 222 166 159 128 125 227 213 168 59 30 32 25 141 170 175 174 173 172 168 172 183 182 173 164 162 130 126 178 181 192 201 217 280 286 296 286 266 278 277 264 267 264 253 241 215 204 229 226 175 211 222 161 147 146 140 149 157 160 168 170 172 175 178 182
5 3 1 358 356 356 356 356 355 353 353 354 352 351 348 339 332 336 338 340 16 36 35 17 176 165 153 127 208 234 226 226 276 328 336 331 276 196 188 179 177 175 171 171 187 188 175 163 161 162 202 158 148 185 233 226 257 276 288 288 281 305 286 267 261 251 219 219 199 184 234 224 195 221 193 151 153 147 145 155 161 165 168 170 174 174 179 184
3 2 1 357 355 355 355 355 355 354 354 354 352 351 345 333 330 339 345 29 58 40 50 40 189 166 132 204 246 261 275 277 284 304 310 303 263 217 197 184 182 179 177 174 186 190 177 169 171 181 191 136 155 201 271 217 211 245 244 258 281 321 290 267 246 224 210 209 165 150 235 234 216 218 160 149 153 144 149 161 164 167 169 172 175 176 180 184
2 1 359 357 354 353 354 355 354 354 354 354 351 349 342 329 332 347 13 67 46 39 42 31 172 153 131 262 268 304 313 300 298 322 338 303 215 194 188 187 185 184 183 170 187 193 180 175 178 189 254 146 190 297 353 357 163 223 210 218 242 278 276 265 166 189 211 211 156 156 231 239 224 203 159 158 157 153 159 167 168 169 171 173 177 179 182 186
1 359 358 356 354 352 354 353 353 354 355 353 349 346 337 327 340 2 60 49 27 25 16 80 157 142 55 274 281 330 332 332 346 353 10 7 187 175 180 186 188 188 179 122 119 190 190 182 172 195 283 214 244 338 358 357 334 292 177 237 198 182 261 275 180 183 206 244 164 165 227 247 229 190 167 166 163 162 164 169 171 172 174 175 179 180 183 188
359 359 357 355 353 353 353 352 352 353 354 353 346 344 334 329 351 27 84 25 5 358 8 121 155 149 26 287 308 337 339 327 335 331 332 326 232 200 176 173 184 189 180 125 113 173 186 204 184 207 269 217 176 149 28 344 321 320 197 237 192 177 250 283 275 217 200 219 179 180 217 256 225 181 169 171 171 169 167 171 174 175 177 177 180 182 182 186
358 358 357 355 354 352 351 352 353 352 354 353 345 345 341 334 353 78 89 14 353 320 55 139 146 137 245 299 324 334 318 311 321 315 309 305 262 215 165 151 173 169 147 349 143 151 171 198 222 213 207 199 175 132 150 245 241 264 207 221 224 193 224 265 297 273 186 185 212 205 219 239 214 172 172 178 176 173 173 176 177 178 180 179 180 183 183 186
358 357 357 356 354 351 351 353 354 354 356 356 350 353 6 351 347 118 48 1 342 220 135 169 139 102 279 316 328 306 299 307 314 308 307 313 248 199 166 142 139 138 115 41 168 146 163 192 175 202 213 203 194 165 193 213 194 198 188 190 236 229 232 233 258 280 88 129 238 224 230 238 211 171 180 181 177 180 182 179 179 180 181 181 182 185 186 188
357 357 358 357 353 350 351 354 357 358 359 4 6 15 25 17 340 182 355 353 356 143 330 294 91 63 277 301 303 292 301 305 305 297 304 1 185 184 163 133 128 133 131 157 189 173 159 147 157 203 215 203 205 200 199 191 129 162 174 174 194 224 245 239 241 257 51 75 243 232 236 239 205 183 191 184 183 186 183 178 180 184 183 183 186 189 189 192
356 357 357 356 353 349 351 354 360 3 5 13 20 35 24 17 351 323 345 339 344 174 262 265 164 253 273 294 294 303 318 316 298 284 289 17 137 166 152 117 124 134 153 167 181 172 161 167 197 212 213 205 207 204 200 236 269 163 161 186 205 225 251 249 249 257 143 153 243 234 235 243 217 194 195 185 184 186 181 181 185 187 187 188 190 193 193 195
355 356 356 355 352 349 352 354 0 7 12 23 31 49 34 23 9 320 328 314 271 218 242 249 220 236 260 278 290 309 332 338 323 311 295 325 137 158 164 135 137 165 175 159 140 143 165 194 218 219 208 196 199 192 191 228 259 263 223 243 254 233 249 265 254 251 160 164 270 257 245 253 230 200 196 181 181 192 189 185 188 190 192 193 193 196 196 191
354 355 355 354 351 349 351 353 1 8 15 33 42 60 95 46 10 312 307 311 292 252 240 258 245 246 265 275 285 302 355 332 324 314 333 84 151 176 183 162 162 176 169 147 131 157 187 219 227 215 173 169 193 180 183 206 231 250 246 251 267 239 261 282 264 246 169 181 273 262 242 257 243 201 191 186 188 199 196 188 188 188 190 195 196 197 193 184
352 353 354 352 349 347 349 354 3 7 14 32 43 55 55 9 355 339 309 292 298 284 245 265 268 264 287 294 297 39 81 314 314 299 323 88 161 189 185 184 172 164 169 172 176 174 193 232 226 186 139 181 200 185 182 194 216 228 227 231 246 226 207 262 280 356 84 205 241 230 237 268 266 192 191 200 201 202 201 197 193 191 193 195 195 195 189 185
351 352 353 351 347 346 349 354 5 6 6 16 36 31 10 342 347 356 318 261 300 292 254 241 246 251 298 310 309 50 52 230 221 296 320 100 164 190 180 185 174 176 183 186 194 194 220 259 185 148 163 189 196 197 186 187 213 221 220 223 230 229 219 236 308 346 343 306 242 132 332 297 270 208 210 209 211 217 210 200 202 207 205 195 190 195 193 190
350 351 351 350 346 345 350 1 7 358 352 6 31 2 343 334 340 356 108 47 312 284 268 250 234 313 313 311 284 272 284 232 222 257 294 239 243 228 192 188 178 196 188 179 198 213 240 261 142 159 186 191 196 204 193 187 206 226 223 220 219 224 231 237 6 1 354 318 285 125 159 290 279 234 224 194 196 217 207 195 208 211 201 193 194 198 197 194
349 350 350 349 345 344 352 27 352 349 347 9 355 338 330 332 336 348 114 44 324 282 334 333 317 350 335 330 319 323 96 300 275 260 275 270 257 233 212 212 187 202 179 166 200 220 229 213 157 175 186 186 200 209 197 183 196 235 216 206 210 209 220 210 91 31 276 260 272 122 163 267 306 268 232 183 194 211 200 200 211 207 195 198 201 197 194 195
348 350 350 348 347 349 360 0 343 352 0 329 334 331 331 335 336 153 110 19 345 341 19 337 319 349 345 324 321 24 117 305 312 308 316 310 274 204 204 244 198 192 155 150 216 198 185 190 181 188 185 184 201 210 194 175 196 235 176 161 187 193 213 216 165 198 235 262 281 266 153 236 285 267 227 175 201 218 205 210 213 202 199 203 203 198 195 197
348 351 350 350 357 4 9 355 346 354 338 328 334 337 336 340 116 135 79 1 325 33 86 319 317 326 333 315 326 31 182 303 343 325 327 342 353 158 194 230 199 194 164 176 215 194 177 190 186 185 190 194 201 204 186 174 203 223 142 149 171 181 209 209 182 211 230 294 274 242 159 206 267 274 266 164 203 225 212 216 217 205 206 205 203 201 198 198
348 352 352 357 15 16 7 2 354 340 336 338 341 338 336 354 134 93 59 183 332 41 163 313 333 324 327 326 350 18 333 334 12 297 320 353 5 22 181 201 200 243 221 195 213 219 195 188 178 182 199 203 203 202 177 179 212 197 133 151 155 167 192 185 184 197 178 237 253 231 168 200 266 273 275 180 208 224 211 216 219 211 211 208 206 205 199 197
348 352 354 4 24 14 3 358 352 344 341 342 337 335 340 124 101 59 74 204 33 20 298 345 345 325 343 2 9 3 354 350 333 314 344 7 10 18 32 49 48 293 280 244 219 226 239 183 174 188 202 187 186 199 178 185 202 159 129 155 79 143 165 161 162 135 196 245 246 226 178 184 250 260 241 218 211 203 194 213 219 214 214 211 210 208 200 198
347 351 354 8 20 14 8 347 344 347 344 339 334 336 21 103 54 101 193 244 62 349 354 1 343 342 359 14 13 353 350 344 338 355 13 12 23 26 18 17 20 5 304 279 250 246 251 214 187 198 196 170 159 199 197 194 197 174 147 157 204 320 75 169 69 116 223 243 236 214 176 184 230 250 237 238 227 196 191 208 213 211 211 209 209 207 201 201
346 349 350 3 8 12 9 339 340 346 341 334 334 351 85 69 30 144 267 348 47 341 356 334 328 348 352 8 20 352 340 346 350 5 19 24 46 43 41 31 354 331 226 267 295 265 237 223 224 216 196 180 168 191 201 195 197 187 157 147 179 246 195 212 211 176 228 247 230 187 161 194 227 228 235 245 237 212 202 209 211 209 210 207 206 204 202 201
344 347 346 2 5 2 355 345 344 346 337 333 341 59 75 93 146 282 316 355 7 335 343 296 317 344 356 16 13 344 335 354 356 357 1 35 69 71 62 36 17 35 201 310 350 290 248 223 215 203 202 189 178 186 194 186 188 187 178 166 179 192 197 216 222 235 247 260 258 172 150 223 233 208 226 234 238 225 206 212 217 213 211 207 204 202 201 200
344 347 346 5 11 359 350 346 345 345 337 339 22 75 61 92 168 25 8 306 295 345 336 302 327 346 15 26 348 339 347 338 353 0 353 13 50 50 43 23 19 22 328 20 33 287 207 224 214 189 247 226 193 192 179 154 175 192 183 172 182 186 190 199 189 218 239 251 257 192 168 207 188 205 218 217 229 229 211 216 222 221 215 205 200 196 197 200
343 349 351 4 8 356 347 342 340 344 343 356 51 70 78 129 238 13 10 264 264 347 325 331 25 20 14 357 332 349 3 319 347 10 30 38 38 25 26 14 10 14 19 39 6 358 235 256 279 321 318 301 228 208 165 142 184 200 168 176 205 187 165 190 200 192 193 237 245 212 207 214 204 256 244 215 226 224 216 221 221 227 219 191 187 190 193 199
344 350 1 7 360 348 342 339 335 340 352 55 60 63 124 153 265 193 149 287 253 21 335 349 36 53 359 335 336 347 357 5 353 5 56 52 41 25 32 22 8 12 34 60 309 2 338 278 306 328 318 317 354 304 199 169 182 181 171 194 200 156 147 213 247 198 139 235 244 209 243 270 254 269 284 230 228 223 220 223 222 228 215 182 190 194 193 197
341 344 344 358 353 342 337 338 332 338 21 81 75 97 186 124 354 311 351 330 295 111 70 26 25 57 7 350 344 341 352 8 353 359 24 30 38 20 12 26 15 6 7 24 237 354 351 284 296 313 295 308 358 329 263 194 161 149 188 194 153 103 154 200 242 257 209 241 267 243 239 245 215 249 268 160 210 225 224 221 224 230 212 187 200 199 195 197
332 330 317 345 347 340 338 337 330 1 74 67 70 96 130 84 3 347 329 313 302 78 79 104 17 61 72 29 331 329 354 9 351 3 2 359 37 29 15 8 4 351 334 334 216 292 354 297 295 275 268 314 339 335 275 229 190 178 178 167 151 157 188 187 216 226 213 240 279 283 251 226 205 228 215 180 202 218 222 222 226 229 216 202 206 204 199 197
334 331 308 343 345 343 345 347 359 78 70 57 74 94 86 68 354 349 328 313 92 87 71 153 213 31 88 105 301 318 354 38 359 2 12 6 1 32 36 9 335 342 328 327 82 294 349 21 289 320 358 326 319 268 216 237 233 222 163 158 168 189 192 188 193 194 201 230 260 285 287 246 226 207 185 195 207 208 209 216 223 225 222 214 207 204 200 196
347 359 272 345 348 347 356 42 68 54 65 93 127 244 340 69 338 340 346 350 68 108 74 143 158 51 21 7 355 336 359 63 26 12 27 24 11 39 41 23 336 336 320 312 356 326 0 68 270 313 347 334 286 197 144 230 276 249 206 178 182 192 195 207 209 180 185 198 220 265 270 256 248 204 184 198 208 203 200 203 212 220 222 220 212 204 199 195
344 41 306 347 352 350 8 61 51 34 87 75 30 330 340 20 11 344 353 9 28 68 121 131 119 79 56 356 356 356 1 33 37 41 28 25 61 56 26 18 338 327 320 319 350 356 352 65 269 305 333 321 273 279 313 344 332 260 255 238 204 192 152 190 229 223 204 205 190 220 260 260 251 213 194 200 204 204 199 196 205 214 216 219 216 205 198 196
2 21 314 348 354 353 24 65 18 28 90 13 356 275 305 351 19 347 352 11 29 18 20 67 67 55 65 356 327 17 54 66 49 56 135 215 144 219 351 1 331 314 335 354 331 326 319 120 286 289 275 264 270 275 282 283 269 240 246 300 302 260 144 181 232 222 209 226 172 188 265 267 239 210 206 212 212 210 204 196 199 209 212 216 217 209 202 200
24 296 313 353 359 1 56 59 352 15 47 321 332 285 289 355 18 350 359 17 20 6 7 26 39 41 49 30 347 25 51 105 182 173 184 239 246 253 325 348 337 324 350 4 325 325 325 350 338 302 285 273 272 270 279 295 282 167 288 356 351 312 316 282 254 201 197 219 179 214 258 260 246 227 222 238 258 236 214 202 201 208 209 211 215 212 204 204
339 275 296 0 13 35 86 58 355 2 359 338 349 354 348 29 38 10 12 19 7 350 15 28 25 34 29 356 355 4 22 81 189 207 197 238 234 218 322 357 350 349 3 350 347 347 324 294 74 3 352 316 286 268 18 3 22 22 315 325 318 317 334 321 287 176 231 216 182 204 242 242 259 277 254 270 301 274 235 216 211 214 213 211 214 214 209 208
325 272 252 353 20 45 79 72 53 22 357 350 354 5 3 8 32 20 13 24 6 339 3 32 10 20 14 4 11 353 10 68 192 234 93 335 243 227 142 39 357 350 359 350 355 5 289 230 99 93 120 202 233 211 259 324 334 321 303 305 310 326 335 325 320 281 252 219 186 209 232 244 289 289 263 229 247 263 263 264 247 235 229 219 216 216 213 211
344 26 293 334 17 44 69 61 50 46 14 4 348 2 13 353 340 359 11 42 6 341 334 16 0 12 13 19 23 339 323 26 332 329 129 257 273 245 175 106 346 330 358 356 357 5 272 278 169 177 187 212 240 261 268 280 294 298 302 304 303 304 301 297 279 250 243 199 219 232 237 266 271 263 261 250 233 246 258 255 243 240 236 227 219 215 211 208
52 32 0 336 349 19 25 21 30 27 351 351 307 315 15 4 332 340 1 23 347 334 330 25 36 41 15 7 11 298 304 342 326 315 230 253 281 282 226 153 283 322 14 2 352 359 293 289 231 212 221 233 251 272 279 282 285 286 291 293 292 291 286 252 232 250 283 242 242 240 227 256 257 236 232 245 240 244 250 239 228 227 227 228 225 216 209 208
46 83 106 294 313 8 4 339 351 349 323 304 240 327 10 20 10 359 350 344 342 341 350 17 22 24 10 356 347 280 320 348 319 304 332 301 310 327 321 272 259 18 49 4 343 358 274 267 243 234 246 245 243 262 277 281 279 272 270 274 280 284 281 260 246 250 252 249 266 271 215 244 257 249 237 239 231 236 246 247 243 232 222 225 226 217 209 206
34 75 335 315 315 244 260 292 315 331 327 314 336 20 13 23 20 355 318 329 339 344 16 10 340 343 341 336 309 248 287 332 298 295 303 283 299 328 299 281 289 29 78 12 336 349 253 271 252 244 264 261 249 263 274 276 277 274 268 266 271 276 275 267 257 247 238 246 276 285 261 253 257 267 272 258 239 238 251 268 275 255 234 222 215 211 207 202
67 72 334 343 321 264 246 276 308 334 339 324 340 10 4 23 18 341 305 289 297 323 9 351 322 324 322 314 255 227 238 243 257 258 242 264 282 244 234 251 254 257 161 98 349 352 302 288 288 286 288 274 260 261 262 264 276 279 275 272 271 279 285 277 259 249 239 239 253 260 264 264 271 356 333 296 283 287 285 293 287 268 254 229 206 203 202 195
11 13 43 57 334 319 309 315 326 350 353 340 2 0 344 3 1 326 300 235 217 247 293 313 316 317 313 313 294 262 264 259 251 245 236 246 248 223 229 233 176 198 213 169 184 7 57 301 318 354 314 278 263 263 282 291 289 273 264 272 281 302 320 313 289 278 266 242 237 240 250 267 312 344 330 313 329 353 338 326 319 300 279 240 207 198 194 189
350 15 86 99 330 335 330 313 336 42 23 326 349 341 314 322 333 325 319 299 237 226 225 281 305 302 304 308 289 273 281 280 266 259 250 247 245 235 234 236 226 225 215 167 168 198 177 282 313 314 270 273 281 337 318 312 301 259 218 217 327 335 338 327 331 1 349 287 238 236 247 291 319 324 322 318 329 354 9 349 327 309 296 263 225 205 196 191
Height
811 809 807 804 802 800 797 795 793 790 788 786 784 782 781 779 777 776 775 773 772 771 770 768 767 765 764 763 762 761 761 760 758 760 754 737 733 740 743 744 747 750 753 756 757 759 764 768 769 771 774 777 779 778 778 776 775 782 791 798 801 799 793 779 774 771 768 769 771 769 766 771 776 773 767 767 772 775 778 777 776 776 774 777 780 783 788 791
811 809 806 804 802 799 797 794 792 790 787 785 783 781 779 778 776 775 774 772 771 769 768 767 765 764 763 762 761 760 760 758 758 756 741 729 733 738 739 743 746 748 749 752 753 754 760 766 768 771 774 778 779 778 779 776 776 785 790 797 796 788 779 768 766 764 762 766 768 768 766 768 772 771 767 774 781 778 782 784 781 783 782 781 782 785 789 791
810 808 805 803 801 798 796 793 791 789 786 784 782 780 778 776 775 773 772 771 769 768 766 765 764 763 762 761 760 760 759 759 756 745 731 728 731 733 737 741 744 746 745 747 748 749 753 760 765 770 776 780 779 779 781 778 778 782 786 796 789 775 771 764 762 762 759 760 765 768 766 767 768 766 767 775 782 780 783 784 783 787 786 785 785 786 789 791
810 808 805 802 800 797 795 792 790 788 785 783 780 779 777 775 773 772 770 769 767 766 765 763 762 761 761 760 760 759 759 758 747 733 728 729 727 728 735 738 741 745 746 748 749 750 751 757 764 768 776 782 780 779 782 779 778 780 782 787 777 768 771 762 758 759 757 757 762 766 767 770 766 764 768 773 783 785 780 775 774 780 782 784 785 785 788 790
809 807 804 801 799 796 793 791 789 786 784 781 779 777 775 773 772 770 768 767 765 764 763 762 761 760 760 759 759 759 759 755 738 728 729 729 727 728 732 737 741 743 747 751 752 754 755 758 764 769 775 781 783 782 782 775 774 779 776 774 768 768 771 761 756 757 755 756 760 765 768 767 764 764 767 770 779 778 769 766 767 770 773 776 780 783 786 789
808 805 803 800 797 795 792 790 787 785 782 780 778 776 774 772 770 768 767 765 763 762 761 760 760 759 759 759 759 759 759 749 732 729 730 728 729 728 730 736 740 743 747 750 753 755 758 760 765 772 776 778 782 781 779 772 772 781 775 767 766 767 768 761 756 756 755 759 762 763 761 760 765 767 765 765 767 762 756 759 764 768 769 771 775 780 783 786
807 804 802 799 796 794 791 788 786 783 781 778 776 774 772 770 768 767 765 764 762 761 760 759 759 758 758 759 759 759 760 746 729 730 730 728 730 728 731 735 738 743 746 748 752 754 757 762 766 770 775 778 780 778 775 772 772 781 776 767 764 764 764 759 758 757 756 760 758 757 757 760 767 766 762 762 758 754 754 757 763 768 771 773 776 779 781 783
806 803 800 798 795 792 789 787 784 782 779 777 775 773 771 769 767 765 763 763 761 760 759 758 758 758 758 759 758 759 758 743 730 731 729 727 729 728 731 736 739 741 743 746 747 750 754 761 764 766 775 777 775 775 774 774 776 778 773 766 764 763 760 757 758 757 756 756 753 755 759 760 760 759 761 759 755 754 755 758 764 769 773 776 776 779 782 784
806 803 799 797 794 791 788 785 783 780 777 775 773 771 770 767 766 764 763 761 759 759 757 757 757 757 758 758 759 758 748 736 732 731 728 728 729 729 730 733 738 739 742 746 745 748 751 757 760 760 769 772 770 773 772 777 779 771 766 766 765 763 759 758 757 756 756 754 752 757 761 757 752 757 761 756 754 756 756 761 765 769 774 777 778 779 781 783
805 802 799 796 793 790 787 784 782 779 776 774 772 770 768 766 764 762 761 760 758 757 756 757 757 757 759 757 760 757 739 731 733 731 730 730 729 730 731 731 735 738 741 745 746 747 747 751 754 754 763 767 768 770 770 774 771 762 764 766 764 763 758 757 757 755 755 753 751 758 760 755 750 758 764 755 752 754 757 764 766 769 774 776 778 779 780 782
804 801 798 795 792 789 786 783 780 777 775 773 771 769 767 765 763 761 760 758 757 756 756 756 756 757 758 758 761 754 735 731 732 730 732 733 732 733 732 732 733 736 740 743 746 745 745 748 749 754 761 764 766 769 767 765 763 761 765 766 762 761 757 754 755 752 754 755 748 752 757 755 754 758 759 753 751 752 758 765 766 769 773 774 777 779 781 783
804 801 797 794 791 788 785 782 779 776 774 772 770 768 766 764 762 760 758 757 755 756 756 756 757 757 758 759 756 743 733 733 731 731 734 734 735 734 733 733 733 734 737 740 744 744 746 747 749 756 759 759 766 771 765 758 760 763 764 769 765 763 760 753 752 750 752 754 743 749 764 765 761 757 752 750 751 752 758 765 767 769 772 774 776 778 781 782
803 800 796 793 790 786 784 780 777 775 773 771 769 767 765 762 760 759 757 756 756 756 755 756 756 756 758 756 743 733 733 734 732 732 732 732 734 734 734 736 736 738 739 740 743 744 747 747 748 753 753 757 765 764 758 754 760 764 765 771 771 773 767 750 748 748 750 750 738 751 777 775 760 753 749 749 751 756 762 765 767 770 771 774 776 778 780 781
803 799 796 792 789 786 782 779 777 774 772 770 768 766 764 761 759 758 757 756 755 756 755 756 756 756 758 749 734 732 734 733 733 733 731 731 731 733 735 737 739 741 743 744 746 747 749 749 749 753 753 756 758 756 759 761 762 765 768 771 775 784 773 748 745 749 751 747 735 752 778 772 757 752 750 749 750 755 763 765 766 769 770 773 775 777 779 780
802 799 795 792 788 785 781 778 776 773 771 769 767 765 762 760 759 757 757 756 756 756 755 755 755 756 758 746 733 733 733 732 733 733 732 732 732 733 734 736 740 742 744 746 747 749 751 751 754 759 757 754 756 763 768 769 766 766 774 778 777 783 772 751 745 746 750 746 736 753 773 766 754 751 749 747 750 753 760 764 765 767 768 771 773 775 778 779
802 799 794 791 787 783 781 778 775 773 770 768 766 764 761 759 758 758 758 756 756 755 755 755 755 757 756 744 733 732 733 732 732 732 733 732 733 733 733 736 739 743 746 746 748 749 751 754 756 758 759 758 762 770 775 778 777 770 775 782 778 778 774 761 749 741 743 746 743 752 764 761 751 749 748 747 749 753 758 762 763 765 766 768 771 772 775 778
802 798 794 790 786 783 780 777 774 772 769 767 764 762 760 758 758 758 757 757 756 755 755 755 756 757 750 736 733 734 733 732 731 731 730 730 732 732 733 737 739 743 746 747 749 750 752 756 759 759 760 763 765 770 783 791 788 778 776 779 775 772 773 768 756 742 740 747 750 751 756 755 748 747 748 746 748 753 757 760 761 763 764 765 768 770 772 775
801 797 793 789 785 782 779 776 774 771 769 766 763 761 760 758 758 758 757 757 756 755 755 755 755 757 747 736 737 737 733 732 730 729 727 726 727 730 732 734 737 743 749 752 751 752 757 758 760 765 766 768 767 770 784 784 777 779 780 780 776 770 769 768 760 747 743 750 753 754 757 752 748 749 748 745 747 751 754 756 758 760 762 764 765 768 769 771
801 797 792 788 785 781 779 776 774 772 769 766 762 761 759 758 758 758 758 757 756 756 756 754 755 758 752 742 739 737 733 731 729 727 726 725 726 729 731 733 736 742 752 758 755 753 757 761 766 771 769 766 763 763 770 767 764 770 772 773 774 771 768 763 757 748 745 754 756 756 758 752 751 752 749 747 746 749 753 755 758 760 761 763 764 765 766 768
800 796 792 788 784 781 779 776 774 772 770 767 763 760 761 763 762 760 759 758 757 757 756 753 755 757 753 744 738 735 731 728 728 727 726 726 727 730 732 734 739 745 751 756 757 753 755 766 770 764 759 756 757 759 762 761 761 766 768 769 769 769 766 757 754 747 742 754 756 751 753 751 749 751 747 746 747 751 755 756 758 759 760 761 761 762 762 763
799 795 791 788 784 781 778 777 775 773 771 769 765 764 771 775 773 770 765 759 755 755 754 752 753 754 748 743 739 737 735 731 728 727 726 725 727 733 734 736 745 752 751 751 754 752 755 768 762 750 750 753 756 758 761 762 763 766 770 771 770 769 765 755 753 748 741 753 756 749 752 750 746 748 745 745 750 751 750 752 755 756 757 758 758 759 759 761
798 795 791 787 783 780 778 776 775 774 773 771 769 770 776 778 778 777 773 767 757 752 753 751 751 751 745 742 739 738 742 738 731 727 725 725 728 734 735 737 746 750 749 750 755 760 764 762 749 743 749 753 755 756 759 763 764 767 770 774 775 769 764 756 750 747 745 753 757 751 753 749 741 743 744 743 745 742 739 742 745 748 752 754 754 756 757 761
798 794 790 786 782 779 777 776 776 774 773 772 772 774 776 776 776 776 775 774 763 751 751 750 750 749 745 742 739 739 742 742 738 730 724 726 730 733 734 738 744 746 748 750 753 763 766 752 740 744 750 752 756 757 759 763 765 767 769 774 775 766 765 763 754 749 747 749 753 752 753 749 741 742 744 740 737 735 735 736 738 741 743 745 747 750 754 758
797 793 790 785 781 778 776 776 775 774 774 773 773 774 775 776 775 774 774 775 769 755 750 749 748 748 745 741 739 740 742 742 740 732 725 727 730 730 732 735 741 745 747 746 748 755 754 740 737 745 749 751 757 758 758 765 768 766 764 768 769 763 763 764 758 752 749 749 748 752 762 756 743 746 746 739 738 738 738 740 743 742 741 744 747 749 751 752
796 792 789 785 781 777 776 776 775 775 774 773 775 775 775 775 773 774 774 775 771 757 750 749 748 748 744 740 740 740 741 740 736 731 726 726 728 729 730 730 736 744 744 745 750 752 747 738 736 744 748 750 755 757 757 761 768 768 760 757 760 760 760 761 760 758 763 766 752 752 776 768 744 744 746 740 743 743 740 743 744 742 742 745 747 747 748 749
796 792 788 784 781 777 775 775 775 776 774 774 775 774 774 773 771 772 774 778 772 756 751 752 750 749 744 740 740 738 744 740 730 728 726 724 724 725 730 728 729 737 740 742 748 747 742 737 737 743 746 749 753 755 752 753 767 770 754 747 753 756 759 762 762 765 774 775 755 750 775 776 752 743 742 740 744 742 740 741 739 738 742 742 742 744 745 747
796 792 787 783 780 777 776 777 778 777 776 775 773 772 771 769 770 770 772 781 776 758 756 756 752 752 747 743 739 741 752 744 728 726 724 724 722 721 731 731 728 731 730 738 750 743 734 737 740 741 744 749 753 753 747 747 762 762 744 744 753 755 759 762 763 769 769 766 759 753 764 777 767 746 737 739 744 744 742 740 736 736 738 737 737 739 740 741
795 791 787 782 780 779 778 779 779 777 777 776 772 770 769 766 768 768 774 785 775 758 762 761 752 751 749 746 742 743 750 744 738 733 722 722 723 721 730 730 729 730 723 734 751 738 727 735 739 739 745 748 744 742 739 742 753 749 738 741 747 751 755 757 763 768 765 768 774 761 758 778 775 745 734 740 743 745 743 738 736 734 733 733 733 734 734 736
794 791 786 783 781 780 779 779 778 777 776 772 770 768 766 765 766 769 779 785 771 761 766 761 753 754 752 750 748 747 746 744 746 739 723 724 723 720 728 728 727 730 724 728 739 732 723 726 729 733 741 741 735 733 734 739 745 739 736 740 743 747 751 755 762 765 768 777 779 765 758 775 776 747 737 745 742 739 738 734 732 730 728 729 729 729 730 732
793 790 787 784 782 780 779 777 776 776 773 769 769 766 764 766 768 778 789 784 772 769 767 762 760 761 758 757 755 753 750 748 745 738 730 730 726 722 725 724 726 730 728 726 729 727 721 717 720 724 728 730 729 730 731 733 736 734 738 745 748 751 750 755 759 762 776 780 767 758 755 767 776 752 736 738 731 726 730 731 728 725 725 726 725 726 728 730
793 790 788 785 784 782 780 777 775 773 771 769 767 763 765 768 773 786 790 779 774 775 769 768 768 764 763 766 765 760 755 752 747 743 742 739 737 737 735 737 741 736 732 733 731 727 723 722 722 718 716 721 727 731 731 729 731 736 742 748 758 763 759 764 767 769 784 779 756 750 749 759 771 752 730 725 717 715 721 723 722 722 721 720 720 721 723 724
792 790 788 786 784 782 782 780 775 772 769 767 765 763 767 775 782 790 786 776 779 780 775 775 773 769 770 769 770 767 761 759 753 751 754 753 753 757 759 764 765 753 744 745 740 732 729 726 721 717 712 715 726 735 736 734 734 741 746 753 770 780 778 782 784 778 780 769 749 745 750 757 755 737 722 717 711 710 711 710 711 713 713 713 714 715 716 718
791 788 786 785 783 782 781 779 775 772 768 765 765 764 770 780 789 792 787 783 785 781 777 777 775 774 774 772 773 771 765 764 760 757 758 758 761 766 767 768 767 763 758 756 751 742 735 727 720 720 717 711 720 733 742 743 741 746 750 757 773 785 791 795 791 781 776 764 746 740 751 757 745 725 714 709 704 703 702 702 701 701 703 705 706 709 712 715
789 786 785 784 782 781 780 778 774 771 768 764 764 766 774 787 791 789 788 787 784 779 777 779 777 776 776 777 777 773 771 770 764 764 763 762 767 770 770 768 765 766 766 763 762 758 754 744 727 723 724 718 715 722 730 735 738 741 739 747 761 768 777 786 784 780 775 763 749 745 752 752 737 719 704 697 695 693 695 695 693 694 695 697 702 707 711 714
787 785 783 782 782 780 778 777 774 771 769 765 766 773 784 793 793 789 789 786 783 781 780 779 779 780 782 781 777 773 774 774 768 769 771 771 775 776 776 776 770 769 770 769 770 769 767 755 733 726 730 726 720 714 712 724 738 736 730 742 753 747 750 764 766 762 762 761 753 746 744 734 719 707 695 693 692 689 691 692 691 692 691 695 703 705 707 710
785 782 782 781 780 779 776 775 772 771 770 768 774 784 790 791 790 788 786 783 782 783 783 781 781 785 788 785 782 777 773 774 772 773 775 777 780 779 779 780 775 772 775 775 776 777 775 759 739 735 731 722 725 721 711 718 732 734 736 741 737 727 734 754 762 753 756 765 752 735 734 725 714 707 696 695 698 692 690 691 690 690 689 695 700 699 701 703
785 783 782 781 779 777 775 774 772 770 771 772 780 788 788 787 786 785 783 781 781 781 784 788 786 787 790 789 787 782 776 777 777 776 778 780 784 784 782 781 778 774 775 777 776 774 778 768 747 741 735 722 723 724 712 707 714 728 738 731 723 727 732 744 761 762 763 770 752 732 733 729 724 719 703 698 704 699 693 691 689 687 689 694 695 693 695 695
789 786 784 782 780 777 773 771 770 770 772 777 784 787 786 786 785 783 782 781 780 780 784 790 788 786 790 791 789 784 781 783 782 781 782 783 786 787 785 784 781 776 772 774 773 769 774 774 753 740 741 733 724 723 719 709 704 714 721 715 721 743 745 743 757 764 767 771 756 739 735 727 722 718 706 701 702 698 694 692 690 688 689 691 690 688 690 690
791 787 784 783 780 775 772 770 769 769 774 782 789 788 786 786 784 782 783 781 779 781 785 788 787 786 787 789 789 785 783 786 786 784 786 787 788 787 785 785 783 778 773 771 773 770 769 775 762 743 742 741 729 727 728 719 709 708 711 712 716 729 737 739 744 747 756 766 758 747 740 726 712 704 697 696 695 692 693 692 690 687 684 684 684 684 686 688
794 790 785 782 779 774 771 769 770 774 780 787 791 790 787 787 784 782 782 780 779 780 784 785 786 787 787 786 787 786 785 787 787 787 789 789 790 788 785 785 783 780 774 769 771 770 768 775 773 755 746 744 735 730 731 729 726 723 722 724 721 720 724 730 732 730 738 753 755 752 745 721 699 691 686 684 684 685 686 686 686 683 679 677 678 678 681 683
798 793 787 782 779 775 771 773 780 785 788 791 793 792 789 786 785 785 782 780 780 779 781 783 785 787 788 787 787 787 787 789 790 791 792 791 791 791 786 783 783 780 777 773 773 772 771 776 778 770 762 757 745 734 733 736 738 739 735 728 722 720 724 737 743 730 724 736 740 744 745 718 687 683 681 675 674 676 676 678 679 677 674 673 672 672 675 677
801 796 789 784 781 776 774 782 792 794 794 795 796 796 792 787 787 788 785 783 783 782 781 782 785 787 788 788 788 788 789 791 793 793 793 792 790 790 786 782 781 779 777 779 776 771 770 773 777 776 769 760 745 732 732 735 736 739 737 730 725 721 721 735 744 731 723 727 725 730 738 713 680 674 676 672 670 670 669 672 673 672 671 669 668 668 669 671
807 801 792 787 784 778 779 789 798 800 800 798 796 795 792 790 791 791 789 788 788 787 786 786 786 787 789 789 788 788 789 791 793 792 792 792 788 786 784 781 781 779 777 780 778 771 769 772 777 775 762 748 735 729 729 730 733 739 741 741 741 735 731 733 730 723 723 724 722 733 737 708 678 674 675 673 671 669 669 670 670 670 669 667 666 666 667 668
812 808 799 792 785 780 788 801 806 807 806 802 799 796 793 792 794 794 793 793 792 791 791 790 789 789 790 790 788 789 789 790 793 791 790 792 788 784 783 781 781 780 779 780 779 776 775 776 777 777 768 750 736 733 735 737 743 752 753 751 747 743 744 738 723 718 722 716 715 729 729 702 681 678 676 672 671 668 667 669 669 669 668 666 665 664 664 665
812 807 803 799 791 788 800 811 812 812 813 810 805 801 799 797 795 795 796 796 795 794 793 792 791 791 792 791 790 790 789 789 792 790 789 791 788 783 782 782 780 780 778 776 775 777 779 777 776 781 780 767 754 754 763 767 765 761 756 752 749 748 749 742 731 731 728 715 709 713 711 695 680 674 672 670 671 668 665 667 668 667 666 666 664 664 664 664
812 808 807 805 800 800 808 812 813 815 817 816 810 804 805 804 799 796 796 797 797 795 794 793 792 793 794 794 795 794 790 789 791 790 790 790 788 784 782 782 781 779 777 775 775 778 780 777 775 779 780 775 771 771 775 777 775 768 759 753 751 750 749 747 749 745 727 715 710 702 696 693 683 674 671 668 668 668 665 666 666 664 663 663 662 662 661 661
816 816 818 815 809 809 812 813 816 818 817 818 814 807 807 809 805 801 798 798 800 798 795 795 795 798 800 799 800 798 792 791 792 791 790 789 787 784 782 781 781 779 777 778 777 779 783 781 776 775 776 774 774 773 770 771 773 771 764 757 751 748 747 749 751 741 724 720 713 695 689 691 682 674 673 669 666 665 663 662 662 660 659 658 657 657 658 658
817 820 822 822 819 818 818 816 818 820 818 817 813 808 809 811 810 808 805 801 801 799 798 798 799 802 803 802 802 800 796 795 795 792 791 790 788 787 785 782 781 779 779 781 779 780 786 784 776 774 775 772 770 769 768 769 769 766 763 758 750 745 745 744 741 733 727 726 713 692 686 683 672 668 668 665 663 661 656 654 654 654 655 654 653 654 655 655
819 821 822 822 823 823 823 820 819 820 817 814 811 810 811 813 813 812 808 805 805 801 801 803 804 804 803 802 802 802 799 799 798 795 792 791 790 791 789 785 782 781 781 783 781 780 786 785 776 774 774 770 769 768 765 765 765 761 757 753 746 742 738 734 730 724 723 723 712 698 689 676 664 665 666 663 661 659 654 653 652 651 650 650 650 651 650 649
821 823 823 823 824 823 821 820 820 821 817 813 813 813 813 814 815 813 809 808 810 806 803 805 806 804 803 802 803 803 799 797 798 796 792 793 793 792 789 786 784 783 783 785 783 782 787 786 774 771 774 770 764 763 762 762 763 760 754 747 742 739 731 725 721 716 716 716 709 704 697 678 664 667 671 667 663 660 657 656 654 650 648 646 645 645 644 644
822 822 822 825 825 821 819 820 821 822 820 816 816 817 815 815 816 814 810 806 807 807 804 805 806 804 802 802 801 799 795 793 795 792 789 791 791 788 787 784 783 785 785 785 785 784 789 788 777 774 777 770 762 762 762 760 759 756 751 744 739 736 731 724 719 715 715 711 701 697 694 682 673 676 676 668 662 660 659 659 657 653 649 646 643 641 640 640
822 822 822 825 825 821 820 822 821 821 820 818 817 818 817 816 814 814 812 806 802 803 803 803 805 805 804 801 797 793 791 790 790 787 785 786 784 783 784 782 781 783 783 784 786 786 788 791 787 782 778 770 763 763 762 761 757 747 740 738 736 735 732 728 721 716 716 713 704 696 691 687 686 686 681 671 664 661 660 660 659 655 651 646 642 639 637 636